[[{"header":{"parameterUnit":"m.s-1","parameterCategory":1,"la1":30.2991,"la2":30.254,"lo1":-89.0895,"lo2":-89.0444,"dy":0.0017,"dx":0.0017,"nx":28,"ny":28,"refTime":"2025-04-17T09:00:00:Z","depth":0,"parameterNumber":2,"parameterNumberName":"U-component_of_WINDS"},"data":[0,0,0,0,0,0,0,0,0,0,0,0,0,0,0,0,0,0,0,0,0,0,0,0,0,0,0,0,0,0,0,0,0,0,0,0,0,0,0,0,0,0,0,0,0,0,0,0,0,0,0,0,0,0,0,0,0,0,-1.5491,-1.5491,0,-1.5555,-1.5556,-1.5557,-1.5565,-1.5564,-1.5564,-1.5563,-1.5633,-1.5635,-1.5638,0,0,0,0,0,0,0,0,0,0,0,0,0,-1.5378,-1.538,-1.5491,-1.5491,-1.5492,-1.5555,-1.5556,-1.5557,-1.5565,-1.5564,-1.5564,-1.5563,-1.5632,-1.5635,-1.5638,0,0,0,0,0,0,0,0,0,0,0,0,0,-1.5433,-1.538,-1.549,-1.5504,-1.5506,-1.5555,-1.5556,-1.5557,-1.5565,-1.5564,-1.5563,-1.5563,-1.5631,-1.5635,-1.5638,-1.568,0,0,-1.565,-1.5651,0,0,0,0,0,0,0,0,-1.543,-1.5437,-1.5501,-1.5503,-1.5505,-1.5551,-1.5542,-1.5599,-1.5566,-1.5543,-1.5563,-1.5562,-1.5607,-1.5612,-1.5627,-1.5683,-1.5686,-1.565,-1.5652,-1.5654,-1.5655,0,0,0,0,0,0,0,-1.5426,-1.5434,-1.5516,-1.5502,-1.5504,-1.5508,-1.5515,-1.5553,-1.5579,-1.5545,-1.5545,-1.5553,-1.5608,-1.5623,-1.5628,-1.5687,-1.565,-1.5653,-1.5655,-1.5657,-1.5783,-1.5784,0,0,0,0,0,0,-1.5419,-1.5431,-1.5514,-1.5518,-1.5464,-1.5511,-1.5518,-1.5537,-1.5579,-1.5584,-1.5554,-1.5553,-1.5617,-1.5624,-1.5631,-1.5683,-1.5654,-1.5657,-1.5659,-1.5782,-1.5783,-1.5785,0,0,0,0,0,0,-1.5417,-1.5426,-1.5512,-1.5475,-1.5486,-1.5513,-1.5535,-1.5539,-1.5555,-1.5586,-1.5591,-1.5564,-1.5617,-1.5626,-1.5668,-1.5686,-1.5659,-1.5662,-1.5781,-1.5782,-1.5784,-1.5788,0,0,0,0,0,0,-1.5413,-1.5426,-1.5441,-1.5475,-1.5488,-1.5546,-1.5536,-1.5541,-1.556,-1.556,-1.5597,-1.5602,-1.5617,-1.5662,-1.5672,-1.569,-1.5665,-1.5779,-1.5782,-1.5784,-1.5786,-1.579,-1.5792,0,0,0,0,0,-1.5409,-1.544,-1.5441,-1.5451,-1.5507,-1.5547,-1.5555,-1.557,-1.5562,-1.5578,-1.5598,-1.5601,-1.5682,-1.5667,-1.5677,-1.5697,-1.5778,-1.5781,-1.5783,-1.5785,-1.5789,-1.5792,0,0,0,0,0,0,-1.5408,-1.5444,-1.5447,-1.5489,-1.5515,-1.5549,-1.5569,-1.5574,-1.5603,-1.5602,-1.5621,-1.5629,-1.567,-1.5688,-1.567,-1.5741,-1.573,-1.5734,-1.5727,-1.5731,-1.5734,-1.5729,-1.5668,0,0,0,0,0,-1.5412,-1.544,-1.5471,-1.5506,-1.5519,-1.5542,-1.556,-1.5569,-1.5597,-1.5609,-1.5632,-1.566,-1.5692,-1.5713,-1.5744,-1.5789,-1.5798,-1.5808,-1.5811,-1.5813,-1.5818,-1.5844,-1.5849,-1.5793,-1.5793,-1.5793,0,0,-1.5422,-1.5445,-1.5462,-1.5506,-1.5527,-1.5557,-1.5551,-1.5583,-1.5606,-1.5614,-1.5655,-1.5673,-1.5706,-1.575,-1.5771,-1.5766,-1.5835,-1.5817,-1.5818,-1.5821,-1.5847,-1.5852,-1.5857,-1.5795,-1.5795,-1.5794,0,0,-1.5455,-1.5475,-1.5506,-1.5527,-1.5559,-1.5575,-1.5582,-1.5616,-1.5628,-1.5669,-1.5676,-1.5704,-1.5758,-1.5782,-1.5801,-1.5843,-1.5848,-1.5853,-1.5869,-1.5894,-1.5899,-1.5903,-1.5919,-1.5924,-1.5857,-1.5857,-1.5857,0,-1.5463,-1.5507,-1.5522,-1.5554,-1.5573,-1.5581,-1.5614,-1.5634,-1.5675,-1.5689,-1.5683,-1.5752,-1.5774,-1.5824,-1.5835,-1.585,-1.586,-1.5849,-1.5897,-1.5901,-1.5905,-1.592,-1.5926,-1.5858,-1.5857,-1.5857,-1.5857,0,-1.5517,-1.5548,-1.5569,-1.5607,-1.5629,-1.5661,-1.5682,-1.5703,-1.5711,-1.5727,-1.577,-1.5797,-1.5834,-1.5847,-1.5855,-1.5899,-1.5895,-1.5893,-1.5882,-1.5911,-1.5925,-1.5931,-1.5858,-1.5858,-1.5858,-1.5858,0,0,-1.555,-1.5596,-1.5604,-1.5622,-1.5658,-1.5683,-1.5716,-1.5751,-1.5769,-1.5797,-1.5826,-1.5872,-1.5871,-1.5892,-1.5903,-1.5926,-1.5959,-1.5921,-1.5922,-1.5927,-1.6009,-1.6011,-1.6018,-1.5961,-1.5963,-1.5964,-1.6007,0,-1.5588,-1.5646,-1.566,-1.571,-1.5739,-1.5747,-1.5776,-1.5802,-1.5819,-1.5847,-1.5866,-1.5898,-1.5893,-1.5906,-1.5929,-1.595,-1.5975,-1.5947,-1.599,-1.5991,-1.5981,-1.6025,-1.6027,-1.6067,-1.6013,-1.6014,-1.6014,0,-1.564,-1.5668,-1.572,-1.5753,-1.5766,-1.5791,-1.5825,-1.5852,-1.5882,-1.5893,-1.5917,-1.5926,-1.5962,-1.595,-1.6001,-1.5981,-1.5999,-1.6013,-1.6014,-1.6019,-1.6005,-1.6032,-1.608,-1.6086,-1.6024,-1.6023,-1.6022,0,-1.566,-1.5711,-1.5749,-1.5764,-1.5803,-1.5821,-1.5838,-1.5868,-1.5888,-1.5918,-1.5932,-1.5967,-1.5986,-1.6013,-1.6031,-1.602,-1.6081,-1.607,-1.6092,-1.6091,-1.6104,-1.6103,-1.6156,-1.6116,-1.6116,-1.6115,-1.6115,0,-1.5701,-1.5733,-1.5759,-1.5782,-1.5819,-1.5836,-1.5872,-1.589,-1.5916,-1.5944,-1.5953,-1.598,-1.6002,-1.6033,-1.6047,-1.6088,-1.6096,-1.6107,-1.611,-1.6106,-1.6105,-1.6119,-1.6117,-1.6117,-1.6117,-1.6116,-1.6116,0,-1.573,-1.5748,-1.579,-1.5824,-1.5833,-1.5858,-1.5888,-1.5912,-1.5928,-1.5964,-1.5973,-1.6,-1.6036,-1.6057,-1.6103,-1.6113,-1.6158,-1.616,-1.6147,-1.6149,-1.617,-1.6168,-1.6234,-1.6244,-1.6196,-1.6196,-1.6197,0,-1.5755,-1.5779,-1.5815,-1.5834,-1.5851,-1.5882,-1.5902,-1.592,-1.5942,-1.5979,-1.5999,-1.6035,-1.6065,-1.6122,-1.6146,-1.6182,-1.6185,-1.6206,-1.6191,-1.6186,-1.6186,-1.6185,-1.6188,-1.6208,-1.6209,-1.6209,-1.621,0,-1.5798,-1.5806,-1.5834,-1.5867,-1.5891,-1.5918,-1.5945,-1.596,-1.5983,-1.6007,-1.6043,-1.6066,-1.6113,-1.6149,-1.6186,-1.6206,-1.6212,-1.6214,-1.6221,-1.6217,-1.6209,-1.6215,-1.6155,-1.6213,-1.6212,-1.6212,-1.6212,-1.6212,-1.5826,-1.5848,-1.5877,-1.5909,-1.5931,-1.5956,-1.598,-1.5999,-1.603,-1.6068,-1.6077,-1.6115,-1.6146,-1.6197,-1.6217,-1.6248,-1.6245,-1.6255,-1.6258,-1.626,-1.6261,-1.6204,-1.6255,-1.6255,-1.6255,-1.6255,-1.6255,0,-1.587,-1.5889,-1.5918,-1.5955,-1.598,-1.5983,-1.6012,-1.6034,-1.6067,-1.6095,-1.6124,-1.6166,-1.6202,-1.6229,-1.6265,-1.6285,-1.6289,-1.6294,-1.6293,-1.6298,-1.6261,-1.6252,-1.6291,-1.6291,-1.6291,-1.6291,-1.6291,-1.6291,-1.5896,-1.5934,-1.5946,-1.5995,-1.6014,-1.6051,-1.6068,-1.6092,-1.6114,-1.616,-1.6189,-1.6206,-1.6234,-1.6272,-1.6305,-1.6313,-1.6326,-1.6331,-1.6339,-1.6304,-1.63,-1.6297,-1.6288,-1.6334,-1.6334,-1.6373,-1.6373,-1.6373]},{"header":{"parameterUnit":"m.s-1","parameterCategory":1,"la1":30.2991,"la2":30.254,"lo1":-89.0895,"lo2":-89.0444,"dy":0.0017,"dx":0.0017,"nx":28,"ny":28,"refTime":"2025-04-17T09:00:00:Z","depth":0,"parameterNumber":3,"parameterNumberName":"V-component_of_WINDS"},"data":[0,0,0,0,0,0,0,0,0,0,0,0,0,0,0,0,0,0,0,0,0,0,0,0,0,0,0,0,0,0,0,0,0,0,0,0,0,0,0,0,0,0,0,0,0,0,0,0,0,0,0,0,0,0,0,0,0,0,5.8838,5.8838,0,5.8904,5.8905,5.8906,5.8843,5.8841,5.8838,5.8836,5.8898,5.8902,5.8906,0,0,0,0,0,0,0,0,0,0,0,0,0,5.8649,5.8653,5.8837,5.8838,5.8839,5.8904,5.8905,5.8906,5.8844,5.8841,5.8838,5.8835,5.8897,5.8901,5.8906,0,0,0,0,0,0,0,0,0,0,0,0,0,5.8725,5.8654,5.8837,5.8816,5.8815,5.8904,5.8905,5.8906,5.8844,5.8841,5.8837,5.8834,5.8895,5.8901,5.8907,5.9018,0,0,5.8925,5.8927,0,0,0,0,0,0,0,0,5.8721,5.8732,5.8819,5.8818,5.8817,5.8862,5.8861,5.8943,5.8845,5.8833,5.8836,5.8832,5.8888,5.8895,5.8915,5.9021,5.9023,5.8925,5.8929,5.8931,5.8933,0,0,0,0,0,0,0,5.8715,5.8728,5.8864,5.882,5.8819,5.8801,5.8808,5.8876,5.8881,5.8834,5.883,5.8839,5.8887,5.891,5.8916,5.9024,5.8925,5.893,5.8934,5.8936,5.9221,5.9225,0,0,0,0,0,0,5.8713,5.8725,5.8861,5.8866,5.8759,5.8807,5.8815,5.8851,5.888,5.8881,5.8842,5.8835,5.8901,5.8909,5.8918,5.9048,5.8931,5.8937,5.894,5.9217,5.9222,5.9226,0,0,0,0,0,0,5.871,5.8726,5.8859,5.8794,5.881,5.8815,5.8856,5.8854,5.8877,5.8886,5.8885,5.8864,5.8899,5.891,5.8993,5.9049,5.894,5.8945,5.9212,5.9219,5.9224,5.931,0,0,0,0,0,0,5.8705,5.8725,5.8769,5.8796,5.8813,5.8935,5.8859,5.8858,5.8888,5.888,5.8907,5.8908,5.8897,5.8985,5.8999,5.9056,5.895,5.9207,5.9215,5.9222,5.9303,5.9319,5.9332,0,0,0,0,0,5.8698,5.879,5.8772,5.8789,5.8869,5.8939,5.8949,5.8936,5.8893,5.8935,5.8941,5.8907,5.9041,5.8994,5.9009,5.9069,5.9204,5.9213,5.9222,5.9296,5.9316,5.9332,0,0,0,0,0,0,5.8769,5.8793,5.8773,5.8877,5.8907,5.8928,5.8982,5.8957,5.8998,5.8989,5.8969,5.8976,5.9064,5.9075,5.9021,5.9176,5.9115,5.9128,5.9166,5.9185,5.92,5.9194,5.8955,0,0,0,0,0,5.8797,5.8854,5.8871,5.8961,5.8977,5.8977,5.9007,5.8995,5.9024,5.9035,5.9047,5.9074,5.9122,5.9154,5.9199,5.9304,5.9307,5.9352,5.9367,5.9379,5.939,5.9444,5.9463,5.9256,5.9256,5.9256,0,0,5.8854,5.8875,5.8912,5.8976,5.8997,5.9054,5.8988,5.9051,5.9093,5.9044,5.9124,5.9133,5.9162,5.9256,5.9298,5.9268,5.9448,5.9391,5.9401,5.9405,5.9455,5.9475,5.9492,5.9262,5.9261,5.926,0,0,5.8988,5.9011,5.9087,5.911,5.9144,5.9143,5.9162,5.9187,5.9192,5.9272,5.9236,5.9284,5.9368,5.9389,5.9411,5.9553,5.9521,5.9568,5.9645,5.9698,5.9714,5.9728,5.9777,5.9795,5.9578,5.9579,5.9579,0,5.9055,5.9142,5.9129,5.9195,5.9223,5.9184,5.9259,5.9281,5.9327,5.9346,5.9312,5.9415,5.9432,5.953,5.9564,5.9584,5.9602,5.9564,5.9713,5.9727,5.9741,5.9786,5.9805,5.9584,5.9583,5.9583,5.9582,0,5.9221,5.9282,5.9339,5.9386,5.942,5.9491,5.9486,5.9522,5.9506,5.9509,5.9589,5.9608,5.9655,5.9678,5.9663,5.9773,5.9753,5.9717,5.9654,5.9766,5.9808,5.9826,5.9591,5.9589,5.9588,5.9587,0,0,5.9401,5.944,5.9461,5.9481,5.9515,5.956,5.9628,5.9676,5.9706,5.9738,5.9793,5.9864,5.9831,5.9856,5.9842,5.9889,5.9997,5.9846,5.9847,5.9872,6.0117,6.0143,6.0164,5.9977,5.9981,5.9983,6.0114,0,5.9535,5.9655,5.9645,5.9756,5.9811,5.9773,5.9831,5.9857,5.9861,5.9905,5.9908,5.9959,5.9911,5.9926,5.9971,5.9975,6.0046,5.9965,6.0025,6.0027,6.0018,6.0186,6.0215,6.0337,6.0131,6.0133,6.0136,0,5.9708,5.9748,5.9866,5.989,5.9912,5.9965,6.0007,6.0051,6.0078,6.0077,6.0105,6.0084,6.0148,6.0086,6.0174,6.012,6.0143,6.0149,6.0153,6.0157,6.0087,6.0193,6.0376,6.0394,6.0162,6.016,6.0158,0,5.9825,5.9908,5.9989,6.0008,6.0038,6.0076,6.009,6.0114,6.0143,6.0179,6.0197,6.024,6.0263,6.0295,6.0284,6.0241,6.0374,6.0311,6.0373,6.0373,6.0401,6.0399,6.0589,6.042,6.0419,6.0419,6.0419,0,5.9974,6.0048,6.0042,6.0092,6.0172,6.0158,6.0236,6.0245,6.0267,6.0315,6.0285,6.0331,6.0315,6.0359,6.0352,6.0424,6.0435,6.0434,6.0431,6.0436,6.0436,6.045,6.0441,6.0424,6.0423,6.0422,6.0421,0,6.0119,6.0118,6.0204,6.0226,6.0233,6.0291,6.0308,6.0354,6.0355,6.0417,6.043,6.0431,6.0482,6.0475,6.0531,6.0525,6.0615,6.0602,6.0607,6.0603,6.0664,6.0658,6.0868,6.0894,6.071,6.0712,6.0713,0,6.0214,6.0269,6.0298,6.0329,6.0346,6.0397,6.0427,6.0414,6.0446,6.048,6.0521,6.0569,6.0607,6.0688,6.0693,6.0735,6.0721,6.0792,6.0727,6.073,6.072,6.0717,6.0721,6.0805,6.0807,6.0808,6.081,0,6.0381,6.0378,6.0423,6.0468,6.0505,6.0539,6.057,6.0596,6.0587,6.0623,6.0675,6.0705,6.0762,6.0809,6.0849,6.086,6.0833,6.083,6.0846,6.0852,6.0851,6.085,6.064,6.0825,6.0824,6.0823,6.0822,6.0821,6.0503,6.055,6.0577,6.0627,6.0649,6.0679,6.0722,6.0729,6.0773,6.0819,6.0809,6.0867,6.089,6.0941,6.0957,6.1,6.0974,6.0998,6.1003,6.1009,6.1016,6.0846,6.1007,6.1007,6.1007,6.1006,6.1006,0,6.0667,6.0683,6.073,6.0774,6.0813,6.0787,6.0819,6.0852,6.0905,6.093,6.0968,6.1026,6.1072,6.108,6.1122,6.1155,6.1144,6.1167,6.1163,6.1166,6.1038,6.1019,6.1175,6.1175,6.1175,6.1175,6.1175,6.1175,6.0758,6.0835,6.0835,6.0922,6.0936,6.0994,6.1015,6.104,6.106,6.1128,6.1166,6.1172,6.1189,6.1232,6.1272,6.1273,6.1289,6.1317,6.1313,6.1192,6.1175,6.1159,6.1141,6.1321,6.1321,6.1437,6.1438,6.1439]}]]